Date,TemperatureHighF,TemperatureAvgF,TemperatureLowF,DewpointHighF,DewpointAvgF,DewpointLowF,HumidityHigh,HumidityAvg,HumidityLow,PressureMaxIn,PressureMinIn,WindSpeedMaxMPH,WindSpeedAvgMPH,GustSpeedMaxMPH,PrecipitationSumIn
2013-4-1,68,46,29,44,37,28,98,75,37,30.06,29.95,3,0,7,0.00
2013-4-2,60,45,32,43,38,32,98,79,53,30.12,30.06,3,0,9,0.00
2013-4-3,64,48,31,42,37,30,98,72,31,30.13,29.99,2,0,6,0.00
2013-4-4,46,42,38,46,40,36,98,94,86,29.99,29.71,0,0,2,0.19
2013-4-5,52,43,39,48,42,39,99,95,80,29.86,29.75,1,0,4,0.34
2013-4-6,50,42,36,44,39,35,99,90,66,29.87,29.73,2,0,6,0.12
2013-4-7,46,38,30,42,35,29,98,89,68,29.80,29.53,3,0,8,0.31
2013-4-8,53,42,32,39,35,30,98,80,54,30.25,29.82,2,0,7,0.00
2013-4-9,55,40,29,41,34,28,98,81,44,30.33,30.18,2,0,4,0.00
2013-4-10,50,44,40,48,40,36,98,88,65,30.18,29.87,5,0,13,0.27
2013-4-11,52,41,30,37,33,28,96,75,47,30.18,30.12,4,0,9,0.00
2013-4-12,50,37,28,37,32,27,96,85,46,30.15,29.61,1,0,6,0.03
2013-4-13,39,34,30,37,32,29,97,93,81,29.94,29.61,2,0,6,0.08
2013-4-14,48,35,28,36,30,27,97,84,52,29.98,29.88,2,0,5,0.01
2013-4-15,43,34,28,39,32,27,97,93,72,30.20,29.93,1,0,2,0.08
2013-4-16,48,38,29,35,30,21,98,78,37,30.42,30.20,2,0,5,0.00
2013-4-17,55,39,25,35,30,24,96,73,39,30.46,30.36,3,0,8,0.00
2013-4-18,55,44,32,39,36,31,96,76,51,30.36,30.16,3,0,8,0.00
2013-4-19,57,46,38,44,40,36,97,80,57,30.16,29.97,2,0,8,0.00
2013-4-20,56,48,40,39,37,36,92,69,48,30.13,30.06,5,0,13,0.00
2013-4-21,53,44,31,37,35,29,93,72,51,30.33,30.09,4,0,7,0.00
2013-4-22,57,40,25,33,25,15,96,64,20,30.52,30.33,3,0,6,0.00
2013-4-23,60,41,26,39,29,23,95,69,26,30.42,30.21,3,0,5,0.00
2013-4-24,66,46,27,36,31,23,97,63,19,30.35,30.02,3,0,9,0.00
2013-4-25,68,50,30,43,37,29,96,67,36,30.11,29.97,3,0,9,0.00
2013-4-26,72,53,37,48,38,30,96,65,22,30.15,30.10,3,0,9,0.00
2013-4-27,60,47,34,42,37,30,97,72,32,30.14,30.07,2,0,8,0.00
2013-4-28,56,47,39,40,38,35,93,70,45,30.09,29.88,5,0,10,0.04
2013-4-29,47,40,35,38,31,25,98,73,46,30.05,29.78,4,0,13,0.11
2013-4-30,50,39,29,32,28,24,92,67,37,30.42,30.05,6,0,8,0.00